Location: Tel Aviv
(32.0670°N, 34.7670°E)
Time: 09:37:24
(UTC+02:00)

A-11 Canister half - Pass Details

Date: 09 December 2023
Orbit: 1526 x 1682 km, 47.3° (Epoch: 01 March)

Event Time Altitude Azimuth Distance (km) Brightness Sun altitude
Rises 20:47:27 0° 293° (WNW) 4,934 12.2 -52.3°
Reaches altitude 10° 20:51:08 10° 303° (WNW) 3,942 11.5 -53.1°
Enters shadow 20:54:55 22° 320° (NW) 3,074 10.7 -53.9°
